GW4278 Weather Reports


time (UTC)temp
C
wind
direction
speed
KPH
gust
KPH
rain 1hr
cm
rain 24hr
cm
rain mn
cm
humidity
%
barometer
mb
20260906220514 30 99 4.8 17.7 0.00 0.00 0.00 28 1021.9
20260906220024 30 81 4.8 17.7 0.00 0.00 0.00 28 1021.9
20260906215518 30 105 1.6 17.7 0.00 0.00 0.00 26 1022.1
20260906215013 30 117 4.8 17.7 0.00 0.00 0.00 28 1022.1
20260906214539 30 146 4.8 16.1 0.00 0.00 0.00 28 1022.0
20260906214014 30 71 3.2 17.7 0.00 0.00 0.00 28 1022.1
20260906213516 30 223 3.2 17.7 0.00 0.00 0.00 28 1022.1
20260906213030 30 79 4.8 17.7 0.00 0.00 0.00 27 1022.1
20260906212507 30 155 1.6 17.7 0.00 0.00 0.00 27 1022.3
20260906212010 30 131 6.4 17.7 0.00 0.00 0.00 28 1022.2
20260906211516 29 177 4.8 17.7 0.00 0.00 0.00 28 1022.2
20260906211012 30 98 4.8 14.5 0.00 0.00 0.00 27 1022.4
20260906210515 30 217 6.4 17.7 0.00 0.00 0.00 26 1022.5
20260906210039 30 85 6.4 17.7 0.00 0.00 0.00 26 1022.5
20260906205513 31 102 3.2 12.9 0.00 0.00 0.00 26 1022.5
20260906205014 30 135 1.6 19.3 0.00 0.00 0.00 26 1022.5
20260906204526 30 40 8.0 19.3 0.00 0.00 0.00 26 1022.5
20260906204016 30 68 0.0 16.1 0.00 0.00 0.00 27 1022.6
20260906203504 30 234 6.4 17.7 0.00 0.00 0.00 27 1022.5
20260906203008 30 105 3.2 17.7 0.00 0.00 0.00 27 1022.5
20260906202506 30 194 6.4 16.1 0.00 0.00 0.00 26 1022.6
20260906202008 30 248 4.8 14.5 0.00 0.00 0.00 27 1022.7
20260906201510 30 184 6.4 17.7 0.00 0.00 0.00 26 1022.7
20260906201012 30 146 4.8 16.1 0.00 0.00 0.00 27 1022.7
20260906200511 30 143 4.8 16.1 0.00 0.00 0.00 27 1022.8
20260906200016 30 144 4.8 16.1 0.00 0.00 0.00 28 1022.8
20260906195504 29 113 3.2 20.9 0.00 0.00 0.00 29 1022.8
20260906195003 30 224 11.3 20.9 0.00 0.00 0.00 28 1022.8
20260906194508 30 186 4.8 12.9 0.00 0.00 0.00 28 1022.9
20260906194003 30 147 6.4 17.7 0.00 0.00 0.00 28 1022.9
20260906193504 30 175 6.4 17.7 0.00 0.00 0.00 27 1022.9
20260906193003 30 150 1.6 16.1 0.00 0.00 0.00 28 1022.9
20260906192506 30 159 3.2 16.1 0.00 0.00 0.00 28 1023.0
20260906192006 29 171 1.6 14.5 0.00 0.00 0.00 28 1023.1
20260906191512 29 73 3.2 19.3 0.00 0.00 0.00 29 1023.1
20260906191008 28 74 4.8 19.3 0.00 0.00 0.00 29 1023.2
20260906190510 28 128 6.4 17.7 0.00 0.00 0.00 28 1023.4
20260906190022 29 144 3.2 17.7 0.00 0.00 0.00 28 1023.5
20260906185509 28 220 3.2 17.7 0.00 0.00 0.00 29 1023.5
20260906185013 28 171 3.2 20.9 0.00 0.00 0.00 29 1023.6
20260906184523 28 83 3.2 20.9 0.00 0.00 0.00 29 1023.6
20260906184003 28 267 3.2 16.1 0.00 0.00 0.00 30 1023.6
20260906183503 28 120 3.2 12.9 0.00 0.00 0.00 29 1023.7
20260906183004 28 94 4.8 17.7 0.00 0.00 0.00 31 1023.9
20260906182507 27 142 4.8 19.3 0.00 0.00 0.00 32 1024.0
20260906182006 27 148 6.4 17.7 0.00 0.00 0.00 32 1024.1
20260906181521 27 252 4.8 17.7 0.00 0.00 0.00 34 1024.1
20260906181006 27 196 3.2 24.1 0.00 0.00 0.00 36 1024.3
20260906180512 27 214 9.7 24.1 0.00 0.00 0.00 36 1024.3
20260906180014 27 188 6.4 17.7 0.00 0.00 0.00 37 1024.4
20260906175512 27 149 4.8 16.1 0.00 0.00 0.00 36 1024.6
20260906175015 27 205 3.2 16.1 0.00 0.00 0.00 36 1024.7
20260906174518 27 86 3.2 14.5 0.00 0.00 0.00 36 1024.7
20260906174011 27 85 4.8 17.7 0.00 0.00 0.00 34 1024.6
20260906173512 27 88 4.8 20.9 0.00 0.00 0.00 34 1024.6
20260906173004 27 180 8.0 20.9 0.00 0.00 0.00 32 1024.5
20260906172503 27 139 4.8 16.1 0.00 0.00 0.00 31 1024.5
20260906172004 27 196 1.6 16.1 0.00 0.00 0.00 30 1024.6
20260906171505 27 88 1.6 16.1 0.00 0.00 0.00 31 1024.6
20260906171008 27 80 6.4 19.3 0.00 0.00 0.00 29 1024.7
20260906170508 27 166 8.0 19.3 0.00 0.00 0.00 30 1024.8
20260906170009 27 114 1.6 11.3 0.00 0.00 0.00 30 1024.8
20260906165510 27 183 3.2 12.9 0.00 0.00 0.00 32 1024.8
20260906165011 27 157 4.8 14.5 0.00 0.00 0.00 32 1024.8
20260906164517 27 119 4.8 14.5 0.00 0.00 0.00 32 1024.9
20260906164010 27 352 1.6 11.3 0.00 0.00 0.00 31 1024.9
20260906163510 26 143 1.6 11.3 0.00 0.00 0.00 29 1024.9
20260906163026 26 161 4.8 11.3 0.00 0.00 0.00 30 1024.9
20260906162513 26 199 3.2 8.0 0.00 0.00 0.00 29 1024.9
20260906162016 26 188 3.2 11.3 0.00 0.00 0.00 30 1024.8
20260906161509 26 167 4.8 11.3 0.00 0.00 0.00 29 1024.7
20260906161006 25 190 3.2 11.3 0.00 0.00 0.00 30 1024.8
20260906160506 25 134 6.4 9.7 0.00 0.00 0.00 30 1024.8
20260906160024 25 199 4.8 9.7 0.00 0.00 0.00 32 1024.8
20260906155512 24 222 0.0 11.3 0.00 0.00 0.00 33 1024.8
20260906155010 24 98 1.6 11.3 0.00 0.00 0.00 34 1024.8
20260906154531 23 90 3.2 9.7 0.00 0.00 0.00 33 1024.8
20260906154011 23 88 3.2 6.4 0.00 0.00 0.00 35 1024.9
20260906153515 22 76 1.6 6.4 0.00 0.00 0.00 35 1024.9
20260906153025 22 86 1.6 6.4 0.00 0.00 0.00 37 1024.9
20260906152512 21 105 0.0 4.8 0.00 0.00 0.00 38 1024.9
20260906152016 21 176 3.2 4.8 0.00 0.00 0.00 37 1024.9
20260906151526 21 61 0.0 6.4 0.00 0.00 0.00 38 1025.1
20260906151018 20 302 1.6 12.9 0.00 0.00 0.00 38 1025.3
20260906150503 20 263 3.2 12.9 0.00 0.00 0.00 39 1025.3
20260906150012 20 268 4.8 11.3 0.00 0.00 0.00 40 1025.3
20260906145506 19 275 3.2 12.9 0.00 0.00 0.00 42 1025.3
20260906145007 19 248 6.4 12.9 0.00 0.00 0.00 43 1025.4
20260906144515 18 244 8.0 12.9 0.00 0.00 0.00 44 1025.4
20260906144011 18 261 6.4 12.9 0.00 0.00 0.00 45 1025.3
20260906143512 17 288 6.4 14.5 0.00 0.00 0.00 46 1025.3
20260906143018 17 267 8.0 14.5 0.00 0.00 0.00 48 1025.3
20260906142517 16 261 9.7 14.5 0.00 0.00 0.00 49 1025.5
20260906142016 16 236 8.0 14.5 0.00 0.00 0.00 50 1025.5
20260906141526 15 250 6.4 12.9 0.00 0.00 0.00 51 1025.5
20260906141016 15 259 4.8 9.7 0.00 0.00 0.00 52 1025.6
20260906140521 15 254 4.8 11.3 0.00 0.00 0.00 53 1025.6
20260906140041 15 263 4.8 11.3 0.00 0.00 0.00 53 1025.5
20260906135518 15 253 3.2 11.3 0.00 0.00 0.00 56 1025.5
20260906135006 14 253 1.6 11.3 0.00 0.00 0.00 56 1025.5
20260906134512 14 240 4.8 11.3 0.00 0.00 0.00 55 1025.5
20260906134008 13 223 4.8 11.3 0.00 0.00 0.00 57 1025.5
20260906133511 13 261 4.8 9.7 0.00 0.00 0.00 59 1025.4
20260906133016 13 318 1.6 4.8 0.00 0.00 0.00 60 1025.4
20260906132518 13 265 0.0 4.8 0.00 0.00 0.00 59 1025.3
20260906132014 13 265 1.6 8.0 0.00 0.00 0.00 59 1025.3
20260906131522 13 224 1.6 11.3 0.00 0.00 0.00 57 1025.3
20260906131016 13 230 3.2 11.3 0.00 0.00 0.00 57 1025.1
20260906130515 13 272 4.8 11.3 0.00 0.00 0.00 57 1025.0
20260906130039 13 240 3.2 14.5 0.00 0.00 0.00 56 1024.9
20260906125517 13 292 6.4 16.1 0.00 0.00 0.00 56 1024.9
20260906125020 13 270 9.7 19.3 0.00 0.00 0.00 56 1024.8
20260906124530 13 260 8.0 19.3 0.00 0.00 0.00 56 1024.7
20260906124023 13 253 12.9 20.9 0.00 0.00 0.00 56 1024.7
20260906123510 13 251 14.5 20.9 0.00 0.00 0.00 57 1024.7
20260906123015 13 240 12.9 17.7 0.00 0.00 0.00 57 1024.8
20260906122512 13 239 9.7 14.5 0.00 0.00 0.00 57 1024.7
20260906122011 13 263 6.4 12.9 0.00 0.00 0.00 57 1024.7
20260906121523 13 250 6.4 16.1 0.00 0.00 0.00 56 1024.8
20260906121015 13 257 6.4 16.1 0.00 0.00 0.00 56 1024.8
20260906120516 13 219 8.0 16.1 0.00 0.00 0.00 56 1024.7
20260906120030 13 252 11.3 17.7 0.00 0.00 0.00 56 1024.9
20260906115519 13 267 11.3 17.7 0.00 0.00 0.00 56 1024.9
20260906115014 13 253 11.3 16.1 0.00 0.00 0.00 57 1024.9
20260906114534 13 247 8.0 14.5 0.00 0.00 0.00 57 1025.0
20260906114021 13 271 9.7 14.5 0.00 0.00 0.00 57 1025.1
20260906113503 13 277 8.0 12.9 0.00 0.00 0.00 58 1025.1
20260906113004 13 294 4.8 8.0 0.00 0.00 0.00 58 1025.1
20260906112503 13 265 0.0 9.7 0.00 0.00 0.00 57 1025.1
20260906112005 13 265 0.0 12.9 0.00 0.00 0.00 57 1025.2
20260906111506 13 242 8.0 12.9 0.00 0.00 0.00 56 1025.1
20260906111003 13 263 6.4 12.9 0.00 0.00 0.00 56 1025.1
20260906110504 13 224 6.4 14.5 0.00 0.00 0.00 56 1025.1
20260906110011 13 164 4.8 19.3 0.00 0.00 0.00 56 1025.1
20260906105505 13 261 12.9 19.3 0.00 0.00 0.00 56 1025.0
20260906105006 14 236 4.8 14.5 0.00 0.00 0.00 55 1025.0
20260906104512 14 254 8.0 16.1 0.00 0.00 0.00 54 1024.9
20260906104004 14 298 4.8 16.1 0.00 0.00 0.00 54 1025.0
20260906103502 14 259 9.7 17.7 0.00 0.00 0.00 54 1025.1
20260906103004 15 250 12.9 17.7 0.00 0.00 0.00 54 1025.0
20260906102504 15 255 12.9 17.7 0.00 0.00 0.00 54 1025.1
20260906102002 15 258 12.9 17.7 0.00 0.00 0.00 54 1025.0
20260906101505 15 262 12.9 19.3 0.00 0.00 0.00 53 1025.0
20260906101006 15 259 14.5 20.9 0.00 0.00 0.00 53 1024.9
20260906100504 15 232 12.9 20.9 0.00 0.00 0.00 53 1025.0
20260906100010 15 244 14.5 19.3 0.00 0.00 0.00 53 1025.1
20260906095503 15 252 11.3 17.7 0.00 0.00 0.00 53 1025.2
20260906095003 15 225 11.3 17.7 0.00 0.00 0.00 53 1025.2
20260906094504 15 232 9.7 16.1 0.00 0.00 0.00 53 1025.2
20260906094004 15 235 9.7 20.9 0.00 0.00 0.00 53 1025.1
20260906093506 15 246 9.7 20.9 0.00 0.00 0.00 52 1025.1
20260906093005 15 286 12.9 20.9 0.00 0.00 0.00 52 1025.1
20260906092506 15 277 8.0 16.1 0.00 0.00 0.00 53 1025.1
20260906092006 15 258 6.4 14.5 0.00 0.00 0.00 52 1025.1
20260906091514 15 288 3.2 16.1 0.00 0.00 0.00 52 1025.1
20260906091004 15 268 6.4 17.7 0.00 0.00 0.00 52 1025.0
20260906090509 16 248 12.9 17.7 0.00 0.00 0.00 51 1024.9
20260906090009 16 204 11.3 16.1 0.00 0.00 0.00 51 1024.9
20260906085504 16 221 8.0 16.1 0.00 0.00 0.00 50 1024.9
20260906085010 16 240 1.6 16.1 0.00 0.00 0.00 50 1024.9
20260906084516 16 290 4.8 19.3 0.00 0.00 0.00 49 1024.9
20260906084004 16 241 11.3 19.3 0.00 0.00 0.00 49 1025.0
20260906083507 16 225 14.5 24.1 0.00 0.00 0.00 49 1025.0
20260906083004 16 228 16.1 24.1 0.00 0.00 0.00 49 1024.9
20260906082505 16 265 12.9 20.9 0.00 0.00 0.00 49 1025.0
20260906082008 16 261 9.7 17.7 0.00 0.00 0.00 50 1025.0
20260906081526 16 254 11.3 17.7 0.00 0.00 0.00 50 1025.1
20260906081006 16 222 3.2 12.9 0.00 0.00 0.00 49 1025.1
20260906080510 16 284 3.2 16.1 0.00 0.00 0.00 49 1025.1
20260906080010 16 274 9.7 16.1 0.00 0.00 0.00 48 1025.1
20260906075508 16 234 11.3 16.1 0.00 0.00 0.00 49 1025.2
20260906075007 16 217 9.7 16.1 0.00 0.00 0.00 49 1025.2
20260906074510 16 264 11.3 16.1 0.00 0.00 0.00 48 1025.2
20260906074004 16 271 9.7 17.7 0.00 0.00 0.00 48 1025.2
20260906073508 16 244 11.3 17.7 0.00 0.00 0.00 49 1025.1
20260906073008 16 239 11.3 16.1 0.00 0.00 0.00 49 1025.1
20260906072504 16 251 9.7 12.9 0.00 0.00 0.00 50 1025.1
20260906072005 16 256 1.6 17.7 0.00 0.00 0.00 50 1025.1
20260906071510 16 288 4.8 19.3 0.00 0.00 0.00 51 1025.1
20260906071006 16 281 12.9 19.3 0.00 0.00 0.00 51 1025.2
20260906070509 16 255 11.3 16.1 0.00 0.00 0.00 51 1025.2
20260906070014 16 273 8.0 12.9 0.00 0.00 0.00 50 1025.3
20260906065510 16 206 0.0 3.2 0.00 0.00 0.00 49 1025.4
20260906065011 17 206 0.0 3.2 0.00 0.00 0.00 48 1025.5
20260906064510 17 206 1.6 3.2 0.00 0.00 0.00 47 1025.5
20260906064006 17 206 0.0 3.2 0.00 0.00 0.00 47 1025.5
20260906063508 17 206 0.0 9.7 0.00 0.00 0.00 46 1025.7
20260906063012 17 206 0.0 11.3 0.00 0.00 0.00 46 1025.6
20260906062507 17 173 4.8 11.3 0.00 0.00 0.00 46 1025.5
20260906062008 17 246 4.8 9.7 0.00 0.00 0.00 46 1025.3
20260906061516 17 301 4.8 12.9 0.00 0.00 0.00 46 1025.2
20260906061008 18 259 4.8 16.1 0.00 0.00 0.00 46 1025.2
20260906060508 17 220 6.4 16.1 0.00 0.00 0.00 46 1025.2
20260906060011 17 261 11.3 17.7 0.00 0.00 0.00 46 1025.2
20260906055512 17 276 11.3 17.7 0.00 0.00 0.00 46 1025.3
20260906055008 17 248 12.9 17.7 0.00 0.00 0.00 47 1025.3
20260906054514 17 281 9.7 17.7 0.00 0.00 0.00 47 1025.3
20260906054010 17 249 12.9 17.7 0.00 0.00 0.00 48 1025.3
20260906053509 17 222 6.4 14.5 0.00 0.00 0.00 49 1025.4
20260906053011 16 225 6.4 11.3 0.00 0.00 0.00 49 1025.5
20260906052508 17 217 0.0 3.2 0.00 0.00 0.00 49 1025.5
20260906052012 17 217 0.0 3.2 0.00 0.00 0.00 49 1025.6
20260906051518 17 217 0.0 4.8 0.00 0.00 0.00 49 1025.6
20260906051012 17 217 0.0 19.3 0.00 0.00 0.00 49 1025.5
20260906050509 17 215 4.8 19.3 0.00 0.00 0.00 49 1025.5
20260906050043 16 255 12.9 17.7 0.00 0.00 0.00 49 1025.3
20260906045507 16 246 9.7 14.5 0.00 0.00 0.00 50 1025.1
20260906045010 16 243 9.7 14.5 0.00 0.00 0.00 50 1025.1
20260906044514 17 252 4.8 19.3 0.00 0.00 0.00 50 1025.1
20260906044012 17 286 6.4 19.3 0.00 0.00 0.00 50 1025.1
20260906043512 17 239 14.5 17.7 0.00 0.00 0.00 49 1025.1
20260906043018 17 257 3.2 12.9 0.00 0.00 0.00 49 1025.2
20260906042510 17 224 4.8 12.9 0.00 0.00 0.00 48 1025.1
20260906042013 17 319 1.6 12.9 0.00 0.00 0.00 48 1025.0
20260906041523 17 282 6.4 16.1 0.00 0.00 0.00 48 1025.0
20260906041017 17 232 4.8 17.7 0.00 0.00 0.00 48 1025.0
20260906040513 17 211 12.9 17.7 0.00 0.00 0.00 48 1025.0
20260906040018 18 257 6.4 14.5 0.00 0.00 0.00 48 1025.0
20260906035514 18 261 6.4 16.1 0.00 0.00 0.00 47 1025.0
20260906035012 18 243 9.7 16.1 0.00 0.00 0.00 47 1025.0
20260906034523 18 251 8.0 17.7 0.00 0.00 0.00 47 1025.1
20260906034010 18 236 8.0 17.7 0.00 0.00 0.00 47 1025.1
20260906033510 18 265 12.9 17.7 0.00 0.00 0.00 47 1025.1
20260906033027 18 257 6.4 17.7 0.00 0.00 0.00 47 1025.0
20260906032512 18 248 8.0 17.7 0.00 0.00 0.00 47 1025.0
20260906032014 18 259 11.3 17.7 0.00 0.00 0.00 47 1025.0
20260906031527 18 269 11.3 16.1 0.00 0.00 0.00 47 1025.0
20260906031013 18 255 8.0 11.3 0.00 0.00 0.00 47 1025.0
20260906030517 18 271 3.2 8.0 0.00 0.00 0.00 47 1024.9
20260906030021 19 242 3.2 6.4 0.00 0.00 0.00 46 1024.8
20260906025514 19 311 1.6 8.0 0.00 0.00 0.00 46 1024.8
20260906025017 19 253 3.2 12.9 0.00 0.00 0.00 46 1024.9
20260906024522 20 281 4.8 12.9 0.00 0.00 0.00 46 1024.8
20260906024016 20 277 1.6 9.7 0.00 0.00 0.00 46 1024.7
20260906023516 20 310 4.8 9.7 0.00 0.00 0.00 46 1024.6
20260906023025 20 331 1.6 9.7 0.00 0.00 0.00 45 1024.7
20260906022512 20 251 4.8 9.7 0.00 0.00 0.00 45 1024.6
20260906022012 20 267 3.2 6.4 0.00 0.00 0.00 45 1024.5
20260906021524 20 263 3.2 12.9 0.00 0.00 0.00 45 1024.4
20260906021014 20 271 3.2 12.9 0.00 0.00 0.00 45 1024.5
20260906020516 20 266 4.8 9.7 0.00 0.00 0.00 45 1024.4
20260906020027 20 278 4.8 12.9 0.00 0.00 0.00 45 1024.5
20260906015513 20 248 8.0 12.9 0.00 0.00 0.00 44 1024.5
20260906015014 20 287 4.8 9.7 0.00 0.00 0.00 44 1024.6
20260906014532 20 223 1.6 8.0 0.00 0.00 0.00 46 1024.5
20260906014015 20 328 0.0 3.2 0.00 0.00 0.00 44 1024.5
20260906013512 21 327 1.6 3.2 0.00 0.00 0.00 44 1024.4
20260906013027 21 297 1.6 4.8 0.00 0.00 0.00 44 1024.4
20260906012516 21 297 1.6 4.8 0.00 0.00 0.00 43 1024.5
20260906012013 21 329 1.6 6.4 0.00 0.00 0.00 43 1024.4
20260906011520 21 292 1.6 8.0 0.00 0.00 0.00 43 1024.5
20260906011015 22 330 3.2 8.0 0.00 0.00 0.00 41 1024.6
20260906010507 22 321 3.2 12.9 0.00 0.00 0.00 41 1024.7
20260906010029 22 305 0.0 12.9 0.00 0.00 0.00 42 1024.6
20260906005501 22 351 3.2 11.3 0.00 0.00 0.00 41 1024.7
20260906005003 22 298 6.4 12.9 0.00 0.00 0.00 41 1024.8
20260906004508 22 228 6.4 12.9 0.00 0.00 0.00 42 1024.7
20260906004005 22 292 6.4 12.9 0.00 0.00 0.00 41 1024.6
20260906003509 22 330 3.2 8.0 0.00 0.00 0.00 42 1024.6
20260906003010 22 318 3.2 9.7 0.00 0.00 0.00 42 1024.6
20260906002508 22 306 3.2 20.9 0.00 0.00 0.00 42 1024.6
20260906002008 22 261 8.0 20.9 0.00 0.00 0.00 42 1024.6
20260906001514 21 246 16.1 20.9 0.00 0.00 0.00 41 1024.6
20260906001010 21 261 11.3 17.7 0.00 0.00 0.00 41 1024.8
20260906000514 21 238 9.7 14.5 0.00 0.00 0.00 43 1024.8
20260906000030 21 298 4.8 9.7 0.00 0.00 0.00 1024.7
20260905235515 21 221 3.2 9.7 0.00 0.00 0.00 44 1024.8
20260905235002 21 219 4.8 14.5 0.00 0.00 0.00 44 1024.8
20260905234504 21 219 6.4 16.1 0.00 0.00 0.00 44 1024.9
20260905234007 21 229 8.0 19.3 0.00 0.00 0.00 43 1025.1
20260905233508 21 254 12.9 24.1 0.00 0.00 0.00 45 1025.1
20260905233012 21 272 14.5 24.1 0.00 0.00 0.00 44 1025.2
20260905232514 22 338 11.3 29.0 0.00 0.00 0.00 41 1025.1
20260905232008 22 259 14.5 29.0 0.00 0.00 0.00 40 1024.9
20260905231514 23 273 12.9 22.5 0.00 0.00 0.00 34 1024.8
20260905231011 24 306 11.3 22.5 0.00 0.00 0.00 32 1024.7
20260905230509 25 299 9.7 22.5 0.00 0.00 0.00 31 1024.5
20260905230023 25 352 9.7 20.9 0.00 0.00 0.00 30 1024.2
20260905225513 26 300 4.8 16.1 0.00 0.00 0.00 27 1023.9
20260905225014 26 292 1.6 12.9 0.00 0.00 0.00 25 1023.8
20260905224527 26 332 6.4 12.9 0.00 0.00 0.00 25 1023.6
20260905224005 26 61 1.6 8.0 0.00 0.00 0.00 24 1023.5
20260905223503 27 61 4.8 8.0 0.00 0.00 0.00 23 1023.5
20260905223008 27 94 1.6 9.7 0.00 0.00 0.00 23 1023.4
20260905222510 27 82 3.2 12.9 0.00 0.00 0.00 23 1023.3
20260905222011 27 93 3.2 12.9 0.00 0.00 0.00 22 1023.4
20260905221511 28 169 1.6 14.5 0.00 0.00 0.00 22 1023.3
20260905221010 28 141 1.6 14.5 0.00 0.00 0.00 22 1023.2